Location: Edoum�
(0.9447°N, 10.6482°E)
Time: 14:50:18
(UTC+00:00)

DELTA 2 R/B (1) - Pass Details

Date: 07 June 2020
Orbit: 790 x 803 km, 39.6° (Epoch: 07 July)

Event Time Altitude Azimuth Distance (km) Brightness Sun altitude
Exits shadow 04:22:47 10° 213° (SSW) 2,343 5.5 -11.9°
Maximum altitude 04:28:09 52° 138° (SE) 985 4.2 -10.7°
Drops below altitude 10° 04:33:33 10° 62° (ENE) 2,357 7.7 -9.5°
Sets 04:36:05 0° 57° (ENE) 3,283 8.9 -8.9°
